Prescott, AZ

5:26 PM MST on December 07, 2019 (GMT -0700)
Love

Weather History for KPRC - October, 2019

Change the Weather History Date:

Wednesday, October 16, 2019

  Actual Average Record
Temperature  
Mean Temperature 60 °F 56 °F  
Max Temperature 79 °F 72 °F 86 °F (1991)
Min Temperature 42 °F 41 °F 28 °F (1994)
Degree Days  
Heating Degree Days 4    
Month to date heating degree days 101  
Since 1 July heating degree days 128  
Cooling Degree Days 0    
Month to date cooling degree days 0  
Year to date cooling degree days 1130  
Growing Degree Days 10 (Base 50)    
Moisture  
Dew Point 26 °F    
Average Humidity 30    
Maximum Humidity 47    
Minimum Humidity 14    
Precipitation  
Precipitation 0.00 in 0.02 in 0.65 in (2015)
Month to date precipitation 0.00 0.51  
Year to date precipitation 10.29 11.68  
Sea Level Pressure  
Sea Level Pressure 29.99 in    
Wind  
Wind Speed 5 mph ()    
Max Wind Speed 17 mph    
Max Gust Speed 22 mph    
Visibility 9.3 miles    
Events      
T = Trace of Precipitation, MM = Missing Value Source: Averaged Metar Reports

Daily Weather History Graph

Daily Weather History Graph

Search for Another Location

Airport or City:

Astronomy

Oct. 16, 2019 Rise Set
Actual Time 6:36 AM MST 5:53 PM MST
Civil Twilight 6:10 AM MST 6:19 PM MST
Nautical Twilight 5:41 AM MST 6:48 PM MST
Astronomical Twilight 5:12 AM MST 7:17 PM MST
Moon 7:55 PM MST (10/16) 9:05 AM MST (10/16)
Length of Visible Light 12h 08m
Length of Day
11h 17m
Waning Gibbous, 92% of the Moon is Illuminated
Oct 16
Waning Gibbous
Oct 21
Last Quarter
Oct 27
New
Nov 4
First Quarter
Nov 12
Full

Hourly Weather History & Observations

Time (MST) Temp. Windchill Dew Point Humidity Pressure Visibility Wind Dir Wind Speed Gust Speed Precip Events Conditions
12:53 AM 48.0 °F - 25.0 °F 41% 30.04 in 10.0 mi SSW 4.6 mph - N/A   Clear
1:53 AM 46.9 °F - 21.9 °F 37% 30.04 in 10.0 mi SSW 5.8 mph - N/A   Clear
2:53 AM 45.0 °F 42.6 °F 23.0 °F 42% 30.04 in 10.0 mi SSW 4.6 mph - N/A   Clear
3:53 AM 44.1 °F 41.5 °F 24.1 °F 45% 30.04 in 10.0 mi SW 4.6 mph - N/A   Clear
4:53 AM 44.1 °F 41.5 °F 24.1 °F 45% 30.06 in 10.0 mi SSW 4.6 mph - N/A   Clear
5:53 AM 44.1 °F 40.8 °F 23.0 °F 43% 30.07 in 10.0 mi SSW 5.8 mph - N/A   Clear
6:53 AM 43.0 °F - 24.1 °F 47% 30.10 in 10.0 mi Calm Calm - N/A   Clear
7:53 AM 52.0 °F - 26.1 °F 37% 30.10 in 10.0 mi SW 3.5 mph - N/A   Clear
8:53 AM 63.0 °F - 23.0 °F 22% 30.09 in 10.0 mi North 5.8 mph - N/A   Clear
9:53 AM 68.0 °F - 21.9 °F 17% 30.07 in 10.0 mi NNE 5.8 mph - N/A   Clear
10:53 AM 73.9 °F - 24.1 °F 16% 30.05 in 10.0 mi ESE 10.4 mph 18.4 mph N/A   Clear
11:53 AM 75.9 °F - 25.0 °F 15% 30.03 in 10.0 mi ESE 9.2 mph 21.9 mph N/A   Clear
12:53 PM 77.0 °F - 25.0 °F 15% 29.99 in 10.0 mi SSE 9.2 mph - N/A   Clear
1:53 PM 78.1 °F - 26.1 °F 15% 29.95 in 10.0 mi ESE 8.1 mph - N/A   Clear
2:53 PM 78.1 °F - 27.0 °F 15% 29.93 in 10.0 mi SE 12.7 mph - N/A   Clear
3:53 PM 77.0 °F - 26.1 °F 15% 29.92 in 10.0 mi SE 10.4 mph - N/A   Clear
4:53 PM 73.9 °F - 25.0 °F 16% 29.91 in 10.0 mi SSE 9.2 mph - N/A   Clear
5:53 PM 70.0 °F - 26.1 °F 19% 29.91 in 10.0 mi South 4.6 mph - N/A   Clear
6:53 PM 64.9 °F - 28.9 °F 26% 29.94 in 10.0 mi South 6.9 mph - N/A   Clear
7:53 PM 59.0 °F - 30.0 °F 33% 29.92 in 10.0 mi South 9.2 mph - N/A   Clear
8:53 PM 54.0 °F - 32.0 °F 43% 29.90 in 7.0 mi South 4.6 mph - N/A   Clear
9:53 PM 55.9 °F - 26.1 °F 32% 29.89 in 6.0 mi South 8.1 mph - N/A   Haze
10:53 PM 53.1 °F - 27.0 °F 37% 29.86 in 5.0 mi South 8.1 mph - N/A   Haze
11:53 PM 51.1 °F - 30.9 °F 46% 29.86 in 5.0 mi South 6.9 mph - N/A   Haze